Voltar ao catálogo

CZ-3A R/B

AtivoHEO
NORAD 37385·ROCKET BODY·🇨🇳 China

Lançado Apr 9, 2011 de Xichang Satellite Launch Center

Loading…

Próximas Passagens (próximas 24 horas)

TLE

AtualizadoSource: Space-Track

Época: Sep 14, 2026, 12:12 UTC

1 37385U 11013B   26257.50895809 -.00000070  00000-0  00000-0 0  9996
2 37385  55.5119 211.6579 6462486 174.8660 198.3331  2.63327551147344

Acompanhe CZ-3A R/B em tempo real com AllMySat

Download on the App Store